[[{"header":{"parameterUnit":"m.s-1","parameterCategory":1,"la1":30.2992,"la2":30.254,"lo1":-89.0895,"lo2":-89.0443,"dy":0.0025,"dx":0.0025,"nx":19,"ny":19,"refTime":"2026-03-13T03:00:00:Z","depth":0,"parameterNumber":2,"parameterNumberName":"U-component_of_WINDS"},"data":[0,0,0,-1.1695,-1.1695,-1.1697,-1.1697,-1.171,-1.171,0,0,0,0,0,0,0,0,0,0,0,-1.1701,-1.1701,-1.1695,-1.1695,-1.1697,-1.1697,-1.1709,-1.171,0,0,0,0,0,0,0,0,0,0,0,-1.1701,-1.1701,-1.1702,-1.1695,-1.1697,-1.1697,-1.1709,-1.1705,0,0,0,0,0,0,0,0,0,0,-1.1702,-1.1713,-1.1701,-1.1702,-1.1695,-1.1697,-1.1696,-1.1704,-1.1705,-1.1714,0,-1.1722,0,-1.1716,-1.1711,-1.1711,0,0,0,-1.1691,-1.1712,-1.1707,-1.1702,-1.1696,-1.1697,-1.1695,-1.1705,-1.1705,-1.1715,-1.1722,-1.1723,-1.1717,-1.1711,-1.1712,-1.1775,-1.1775,0,0,-1.1691,-1.1705,-1.1706,-1.1708,-1.1707,-1.1695,-1.1695,-1.1705,-1.1715,-1.1722,-1.1723,-1.1717,-1.1712,-1.1712,-1.1774,-1.1775,0,0,0,-1.1694,-1.1705,-1.1699,-1.1708,-1.1707,-1.1695,-1.1695,-1.1714,-1.1711,-1.1723,-1.1717,-1.1712,-1.1712,-1.1774,-1.1775,-1.1813,0,0,0,-1.1693,-1.1707,-1.1699,-1.1708,-1.1707,-1.171,-1.1704,-1.171,-1.1711,-1.1717,-1.1712,-1.1712,-1.1773,-1.1774,-1.181,-1.1829,0,0,0,-1.1699,-1.1707,-1.1709,-1.1709,-1.1709,-1.171,-1.1707,-1.171,-1.1708,-1.1711,-1.1712,-1.1773,-1.1774,-1.1808,-1.1825,-1.1849,0,0,0,-1.1709,-1.1744,-1.171,-1.1747,-1.171,-1.1733,-1.1707,-1.1724,-1.1732,-1.1712,-1.1773,-1.1775,-1.1808,-1.1823,-1.1847,-1.1872,-1.1884,0,0,-1.176,-1.175,-1.1771,-1.1741,-1.1774,-1.1732,-1.1771,-1.1765,-1.1753,-1.1769,-1.177,-1.1811,-1.1825,-1.1849,-1.1944,-1.1953,0,0,0,-1.1792,-1.1806,-1.1812,-1.182,-1.1816,-1.1814,-1.1801,-1.1799,-1.1811,-1.1764,-1.1826,-1.1834,-1.1847,-1.1858,-1.1866,-1.1877,-1.178,-1.178,-1.178,-1.1885,-1.1867,-1.1899,-1.1882,-1.189,-1.1876,-1.1881,-1.1876,-1.1856,-1.1871,-1.1875,-1.1935,-1.1949,-1.1955,-1.1966,-1.1887,-1.1887,-1.1887,-1.1887,-1.1959,-1.1977,-1.1949,-1.1971,-1.1952,-1.197,-1.1959,-1.1944,-1.1959,-1.193,-1.1941,-1.1912,-1.1965,-1.1975,-1.189,-1.189,-1.1889,-1.1889,-1.1889,-1.2018,-1.2023,-1.202,-1.2029,-1.2038,-1.202,-1.2035,-1.2017,-1.2001,-1.2012,-1.2015,-1.2014,-1.2012,-1.2015,-1.2015,-1.2015,-1.2015,-1.2015,-1.2015,-1.2081,-1.2075,-1.209,-1.2088,-1.2091,-1.2092,-1.2079,-1.2081,-1.2079,-1.2066,-1.2065,-1.2045,-1.1974,-1.1956,-1.2019,-1.2018,-1.2018,-1.2017,-1.2017,-1.2163,-1.2141,-1.2164,-1.2166,-1.2163,-1.2174,-1.2151,-1.2158,-1.2157,-1.2165,-1.2142,-1.2092,-1.2081,-1.2074,-1.206,-1.2145,-1.2145,-1.2145,-1.2145,-1.2213,-1.2205,-1.2224,-1.2229,-1.2233,-1.2214,-1.2241,-1.2231,-1.2217,-1.2216,-1.2201,-1.218,-1.2175,-1.2167,-1.2158,-1.2144,-1.2249,-1.2249,-1.225,-1.2262,-1.2254,-1.228,-1.2265,-1.2261,-1.2259,-1.2284,-1.2292,-1.2272,-1.2253,-1.2215,-1.221,-1.2177,-1.2167,-1.2148,-1.2135,-1.2109,0,0]},{"header":{"parameterUnit":"m.s-1","parameterCategory":1,"la1":30.2992,"la2":30.254,"lo1":-89.0895,"lo2":-89.0443,"dy":0.0025,"dx":0.0025,"nx":19,"ny":19,"refTime":"2026-03-13T03:00:00:Z","depth":0,"parameterNumber":3,"parameterNumberName":"V-component_of_WINDS"},"data":[0,0,0,2.1237,2.1237,2.1266,2.1266,2.1304,2.1304,0,0,0,0,0,0,0,0,0,0,0,2.123,2.123,2.1237,2.1237,2.1266,2.1266,2.1304,2.1304,0,0,0,0,0,0,0,0,0,0,0,2.1229,2.123,2.123,2.1238,2.1266,2.1266,2.1304,2.1281,0,0,0,0,0,0,0,0,0,0,2.1253,2.1248,2.123,2.123,2.1238,2.1266,2.1266,2.128,2.1283,2.1291,0,2.13,0,2.1303,2.1307,2.1307,0,0,0,2.1236,2.1246,2.1253,2.123,2.1238,2.1266,2.1253,2.1282,2.1285,2.1295,2.13,2.1302,2.1303,2.1307,2.1307,2.1361,2.1361,0,0,2.1235,2.1235,2.1251,2.1255,2.1251,2.1252,2.1254,2.1283,2.129,2.1301,2.1303,2.1304,2.1307,2.1308,2.136,2.1361,0,0,0,2.1231,2.1234,2.124,2.1253,2.1258,2.1253,2.1255,2.1288,2.129,2.1303,2.1304,2.1308,2.1308,2.136,2.1361,2.1376,0,0,0,2.123,2.1232,2.1239,2.124,2.1258,2.1274,2.1259,2.1288,2.1291,2.1304,2.1308,2.1308,2.136,2.136,2.1374,2.1382,0,0,0,2.1227,2.1232,2.1236,2.124,2.1253,2.1273,2.1277,2.1289,2.1292,2.1307,2.1308,2.136,2.136,2.1373,2.1381,2.1395,0,0,0,2.1224,2.125,2.1237,2.1266,2.1252,2.1283,2.1277,2.13,2.1314,2.1308,2.136,2.1361,2.1373,2.138,2.1394,2.1407,2.1413,0,0,2.1257,2.1254,2.1271,2.126,2.1293,2.1279,2.1313,2.1326,2.1327,2.1349,2.135,2.1375,2.1381,2.1395,2.1447,2.1452,0,0,0,2.1281,2.1293,2.1302,2.1316,2.1326,2.1335,2.1342,2.1347,2.1365,2.1339,2.1385,2.1388,2.1397,2.1403,2.1407,2.1413,2.1364,2.1364,2.1364,2.1328,2.1327,2.1354,2.1357,2.1371,2.1377,2.1388,2.1395,2.1391,2.1401,2.1408,2.1439,2.1447,2.145,2.1457,2.1416,2.1416,2.1416,2.1416,2.1374,2.139,2.1384,2.1408,2.1407,2.1427,2.1434,2.143,2.1448,2.1435,2.1443,2.1428,2.1455,2.1461,2.1417,2.1417,2.1416,2.1416,2.1416,2.1403,2.1411,2.1416,2.1435,2.145,2.1451,2.1468,2.1467,2.1466,2.1474,2.1479,2.1479,2.1477,2.1477,2.1477,2.1477,2.1477,2.1477,2.1477,2.1431,2.1437,2.1451,2.1464,2.1472,2.1482,2.1488,2.1496,2.1504,2.1501,2.1502,2.1495,2.1458,2.1448,2.1479,2.1478,2.1478,2.1478,2.1478,2.1476,2.1466,2.1489,2.1497,2.151,2.1524,2.1522,2.1537,2.1544,2.1552,2.1544,2.1517,2.1514,2.151,2.1502,2.1545,2.1545,2.1545,2.1545,2.15,2.1499,2.1521,2.1533,2.1545,2.1546,2.157,2.1575,2.1578,2.1582,2.1575,2.1564,2.1561,2.156,2.1555,2.1547,2.1601,2.1601,2.1601,2.1527,2.1526,2.1548,2.1551,2.1561,2.157,2.1592,2.1606,2.1608,2.1603,2.1584,2.1581,2.1564,2.1558,2.1553,2.1546,2.1531,0,0]}]]